, SD

(GMT )
Rapid City

Weather History for KRAP - April, 2014

Change the Weather History Date:

Saturday, April 26, 2014

  Actual Average Record
Temperature  
Mean Temperature 56 °F 49 °F  
Max Temperature 70 °F 62 °F 89 °F (1952)
Min Temperature 42 °F 35 °F 20 °F (1950)
Degree Days  
Heating Degree Days 9 17  
Month to date heating degree days 539 539  
Since 1 July heating degree days 7189 6667  
Cooling Degree Days 0 0  
Month to date cooling degree days 0 0  
Year to date cooling degree days 0 0  
Growing Degree Days 6 (Base 50)    
Moisture  
Dew Point 38 °F    
Average Humidity 51    
Maximum Humidity 62    
Minimum Humidity 39    
Precipitation  
Precipitation 0.07 in 0.08 in 1.28 in (1986)
Month to date precipitation 0.61 1.45  
Year to date precipitation 2.19 3.12  
Snow  
Snow 0.00 in 0.20 in 6.80 in (1994)
Month to date snowfall 6.0 7.2  
Since 1 July snowfall 63.4 39.3  
Snow Depth 0.00 in    
Sea Level Pressure  
Sea Level Pressure 29.47 in    
Wind  
Wind Speed 12 mph (ESE)    
Max Wind Speed 24 mph    
Max Gust Speed 29 mph    
Visibility 10 miles    
Events      
T = Trace of Precipitation, MM = Missing Value Source: NWS Daily Summary

Daily Weather History Graph

Daily Weather History Graph

Search for Another Location

Airport or City:

Trip Planner

Search our weather history database for the weather conditions in past years. The results will help you decide how hot, cold, wet, or windy it might be!

Date:

Astronomy

Apr. 26, 2014 Rise Set
Actual Time 5:51 AM MDT 7:49 PM MDT
Civil Twilight 5:19 AM MDT 8:20 PM MDT
Nautical Twilight 4:41 AM MDT 8:59 PM MDT
Astronomical Twilight 4:00 AM MDT 9:41 PM MDT
Moon 4:22 AM MDT (4/26) 5:15 PM MDT (4/26)
Length of Visible Light 15h 01m
Length of Day
13h 58m
Waning Crescent, 8% of the Moon is Illuminated
Apr 26
Waning Crescent
Apr 29
New
May 6
First Quarter
May 14
Full
May 21
Last Quarter

Hourly Weather History & Observations

Time (MDT) Temp. Windchill Dew Point Humidity Pressure Visibility Wind Dir Wind Speed Gust Speed Precip Events Conditions
12:52 AM 53.1 °F - 32.0 °F 45% 29.62 in 10.0 mi East 5.8 mph - N/A   Scattered Clouds
1:52 AM 53.1 °F - 32.0 °F 45% 29.60 in 10.0 mi East 11.5 mph - N/A   Overcast
2:52 AM 52.0 °F - 30.0 °F 43% 29.56 in 10.0 mi ESE 11.5 mph - N/A   Clear
3:52 AM 46.9 °F - 30.9 °F 54% 29.55 in 10.0 mi SSE 6.9 mph - N/A   Clear
4:52 AM 44.1 °F 40.1 °F 30.0 °F 58% 29.56 in 10.0 mi SSE 6.9 mph - N/A   Clear
5:52 AM 44.1 °F - 30.0 °F 58% 29.55 in 10.0 mi Calm Calm - N/A   Clear
6:52 AM 44.1 °F 41.5 °F 30.9 °F 60% 29.57 in 10.0 mi Variable 4.6 mph - N/A   Clear
7:52 AM 51.1 °F - 34.0 °F 52% 29.54 in 10.0 mi SE 11.5 mph - N/A   Clear
8:52 AM 55.9 °F - 37.0 °F 49% 29.52 in 10.0 mi SSE 20.7 mph - N/A   Clear
9:52 AM 59.0 °F - 37.9 °F 46% 29.50 in 10.0 mi SE 18.4 mph - N/A   Clear
10:52 AM 61.0 °F - 39.0 °F 44% 29.49 in 10.0 mi SE 16.1 mph - N/A   Clear
11:52 AM 62.1 °F - 39.9 °F 44% 29.48 in 10.0 mi SE 13.8 mph - N/A   Clear
12:52 PM 64.9 °F - 39.9 °F 40% 29.46 in 10.0 mi SE 12.7 mph 21.9 mph N/A   Clear
1:52 PM 66.9 °F - 41.0 °F 39% 29.43 in 10.0 mi ESE 16.1 mph 23.0 mph N/A   Clear
2:52 PM 66.0 °F - 42.1 °F 42% 29.42 in 10.0 mi SE 16.1 mph - N/A   Clear
3:52 PM 68.0 °F - 43.0 °F 40% 29.39 in 10.0 mi ESE 16.1 mph 21.9 mph N/A   Clear
4:52 PM 69.1 °F - 44.1 °F 40% 29.39 in 10.0 mi SE 12.7 mph - N/A   Clear
5:52 PM 66.9 °F - 44.1 °F 44% 29.39 in 10.0 mi ESE 11.5 mph - N/A   Clear
6:52 PM 63.0 °F - 45.0 °F 52% 29.39 in 10.0 mi ENE 11.5 mph - N/A   Clear
7:52 PM 59.0 °F - 44.1 °F 58% 29.39 in 10.0 mi ENE 11.5 mph - N/A   Clear
8:52 PM 57.0 °F - 43.0 °F 59% 29.37 in 10.0 mi NE 13.8 mph - N/A   Clear
9:52 PM 57.0 °F - 44.1 °F 62% 29.37 in 10.0 mi NE 16.1 mph - N/A   Scattered Clouds
10:52 PM 55.0 °F - 41.0 °F 59% 29.39 in 10.0 mi NNE 11.5 mph - N/A   Clear
11:52 PM 50.0 °F - 37.0 °F 61% 29.39 in 10.0 mi NNE 10.4 mph - N/A   Mostly Cloudy